This is the latest recevied weather packets stored in our database for station/object WA0LM. If no packets are shown the sender has not sent any weather packets the latest 10 day(s).
| Time | Temp. | Humidity | Pressure | Rain* | Wind** | Luminosity | Snow |
|---|---|---|---|---|---|---|---|
| 1777663050 | 10.56° C | 41% | 1017.4 hPa | 0 mm | - | 392 W/m² | - |
| 1777662747 | 10.56° C | 38% | 1017.6 hPa | 0 mm | - | 253 W/m² | - |
| 1777662443 | 10.56° C | 36% | 1017.4 hPa | 0 mm | - | 253 W/m² | - |
| 1777662139 | 10.56° C | 39% | 1017.4 hPa | 0 mm | - | 583 W/m² | - |
| 1777661835 | 10.56° C | 35% | 1017.3 hPa | 0 mm | - | 771 W/m² | - |
| 1777661531 | 10° C | 37% | 1017.5 hPa | 0 mm | - | 445 W/m² | - |
| 1777661227 | 10° C | 39% | 1017.5 hPa | 0 mm | - | 618 W/m² | - |
| 1777660922 | 8.89° C | 44% | 1017.6 hPa | 0 mm | - | 496 W/m² | - |
| 1777660619 | 8.33° C | 40% | 1017.6 hPa | 0 mm | - | 228 W/m² | - |
| 1777660316 | 8.89° C | 40% | 1017.4 hPa | 0 mm | - | 213 W/m² | - |
| 1777660012 | 8.89° C | 44% | 1017.6 hPa | 0 mm | - | 771 W/m² | - |
| 1777659709 | 10.56° C | 39% | 1017.7 hPa | 0 mm | - | 185 W/m² | - |
| 1777659406 | 9.44° C | 40% | 1017.6 hPa | 0 mm | - | 750 W/m² | - |
| 1777659103 | 10.56° C | 41% | 1017.7 hPa | 0 mm | - | 829 W/m² | - |
| 1777658801 | 9.44° C | 39% | 1017.9 hPa | 0 mm | - | 657 W/m² | - |
| 1777658497 | 9.44° C | 43% | 1017.7 hPa | 0 mm | - | 677 W/m² | - |
| 1777658194 | 9.44° C | 43% | 1017.9 hPa | 0 mm | - | 591 W/m² | - |
| 1777657891 | 9.44° C | 41% | 1018 hPa | 0 mm | - | 530 W/m² | - |
| 1777657588 | 8.89° C | 39% | 1018 hPa | 0 mm | - | 695 W/m² | - |
| 1777657286 | 9.44° C | 40% | 1017.8 hPa | 0 mm | - | 784 W/m² | - |
| 1777656983 | 9.44° C | 37% | 1017.8 hPa | 0 mm | - | 811 W/m² | - |
| 1777656679 | 8.33° C | 42% | 1017.9 hPa | 0 mm | - | 793 W/m² | - |
| 1777656375 | 9.44° C | 43% | 1018.1 hPa | 0 mm | - | 789 W/m² | - |
| 1777656070 | 9.44° C | 44% | 1018.1 hPa | 0 mm | - | 799 W/m² | - |
| 1777655761 | 9.44° C | 44% | 1018.1 hPa | 0 mm | - | 744 W/m² | - |
* Rain latest hour (hover to see other rain measurements)
** Current wind speed in m/s (hover to see current wind gust speed)